Year,Month,Day,Hour,Minute,Value (Times are PST for temperature in C)
2009,09,23,00,00,12.70
2009,09,23,00,01,12.70
2009,09,23,00,02,12.70
2009,09,23,00,03,12.70
2009,09,23,00,04,12.70
2009,09,23,00,05,12.70
2009,09,23,00,06,12.70
2009,09,23,00,07,12.70
2009,09,23,00,08,12.70
2009,09,23,00,09,12.70
2009,09,23,00,10,12.60
2009,09,23,00,11,12.60
2009,09,23,00,12,12.60
2009,09,23,00,13,12.60
2009,09,23,00,14,12.60
2009,09,23,00,15,12.60
2009,09,23,00,16,12.60
2009,09,23,00,17,12.50
2009,09,23,00,18,12.50
2009,09,23,00,19,12.50
2009,09,23,00,20,12.50
2009,09,23,00,21,12.50
2009,09,23,00,22,12.50
2009,09,23,00,23,12.40
2009,09,23,00,24,12.40
2009,09,23,00,25,12.40
2009,09,23,00,26,12.40
2009,09,23,00,27,12.40
2009,09,23,00,28,12.40
2009,09,23,00,29,12.40
2009,09,23,00,30,12.40
2009,09,23,00,31,12.40
2009,09,23,00,32,12.40
2009,09,23,00,33,12.30
2009,09,23,00,34,12.30
2009,09,23,00,35,12.30
2009,09,23,00,36,12.30
2009,09,23,00,37,12.30
2009,09,23,00,38,12.30
2009,09,23,00,39,12.30
2009,09,23,00,40,12.30
2009,09,23,00,41,12.30
2009,09,23,00,42,12.30
2009,09,23,00,43,12.30
2009,09,23,00,44,12.30
2009,09,23,00,45,12.20
2009,09,23,00,46,12.20
2009,09,23,00,47,12.20
2009,09,23,00,48,12.20
2009,09,23,00,49,12.20
2009,09,23,00,50,12.20
2009,09,23,00,51,12.20
2009,09,23,00,52,12.20
2009,09,23,00,53,12.20
2009,09,23,00,54,12.10
2009,09,23,00,55,12.10
2009,09,23,00,56,12.10
2009,09,23,00,57,12.10
2009,09,23,00,58,12.10
2009,09,23,00,59,12.10
2009,09,23,01,00,12.10
2009,09,23,01,01,12.10
2009,09,23,01,02,12.00
2009,09,23,01,03,12.00
2009,09,23,01,04,12.00
2009,09,23,01,05,12.00
2009,09,23,01,06,12.00
2009,09,23,01,07,12.00
2009,09,23,01,08,11.90
2009,09,23,01,09,11.90
2009,09,23,01,10,11.90
2009,09,23,01,11,11.90
2009,09,23,01,12,11.90
2009,09,23,01,13,11.90
2009,09,23,01,14,11.90
2009,09,23,01,15,11.90
2009,09,23,01,16,11.80
2009,09,23,01,17,11.80
2009,09,23,01,18,11.80
2009,09,23,01,19,11.80
2009,09,23,01,20,11.80
2009,09,23,01,21,11.80
2009,09,23,01,22,11.80
2009,09,23,01,23,11.80
2009,09,23,01,24,11.80
2009,09,23,01,25,11.80
2009,09,23,01,26,11.80
2009,09,23,01,27,11.80
2009,09,23,01,28,11.70
2009,09,23,01,29,11.70
2009,09,23,01,30,11.70
2009,09,23,01,31,11.70
2009,09,23,01,32,11.70
2009,09,23,01,33,11.70
2009,09,23,01,34,11.70
2009,09,23,01,35,11.70
2009,09,23,01,36,11.60
2009,09,23,01,37,11.60
2009,09,23,01,38,11.60
2009,09,23,01,39,11.60
2009,09,23,01,40,11.60
2009,09,23,01,41,11.60
2009,09,23,01,42,11.60
2009,09,23,01,43,11.60
2009,09,23,01,44,11.60
2009,09,23,01,45,11.60
2009,09,23,01,46,11.50
2009,09,23,01,47,11.50
2009,09,23,01,48,11.50
2009,09,23,01,49,11.50
2009,09,23,01,50,11.40
2009,09,23,01,51,11.40
2009,09,23,01,52,11.40
2009,09,23,01,53,11.40
2009,09,23,01,54,11.40
2009,09,23,01,55,11.40
2009,09,23,01,56,11.40
2009,09,23,01,57,11.40
2009,09,23,01,58,11.40
2009,09,23,01,59,11.30
2009,09,23,02,00,11.30
2009,09,23,02,01,11.30
2009,09,23,02,02,11.30
2009,09,23,02,03,11.30
2009,09,23,02,04,11.30
2009,09,23,02,05,11.30
2009,09,23,02,06,11.30
2009,09,23,02,07,11.30
2009,09,23,02,08,11.30
2009,09,23,02,09,11.30
2009,09,23,02,10,11.30
2009,09,23,02,11,11.30
2009,09,23,02,12,11.30
2009,09,23,02,13,11.30
2009,09,23,02,14,11.30
2009,09,23,02,15,11.30
2009,09,23,02,16,11.30
2009,09,23,02,17,11.30
2009,09,23,02,18,11.30
2009,09,23,02,19,11.30
2009,09,23,02,20,11.20
2009,09,23,02,21,11.20
2009,09,23,02,22,11.20
2009,09,23,02,23,11.20
2009,09,23,02,24,11.20
2009,09,23,02,25,11.20
2009,09,23,02,26,11.20
2009,09,23,02,27,11.20
2009,09,23,02,28,11.20
2009,09,23,02,29,11.20
2009,09,23,02,30,11.20
2009,09,23,02,31,11.20
2009,09,23,02,32,11.20
2009,09,23,02,33,11.20
2009,09,23,02,34,11.20
2009,09,23,02,35,11.20
2009,09,23,02,36,11.10
2009,09,23,02,37,11.10
2009,09,23,02,38,11.10
2009,09,23,02,39,11.10
2009,09,23,02,40,11.10
2009,09,23,02,41,11.10
2009,09,23,02,42,11.10
2009,09,23,02,43,11.10
2009,09,23,02,44,11.10
2009,09,23,02,45,11.10
2009,09,23,02,46,11.10
2009,09,23,02,47,11.10
2009,09,23,02,48,11.10
2009,09,23,02,49,11.00
2009,09,23,02,50,11.00
2009,09,23,02,51,11.00
2009,09,23,02,52,11.00
2009,09,23,02,53,11.00
2009,09,23,02,54,11.00
2009,09,23,02,55,10.90
2009,09,23,02,56,10.90
2009,09,23,02,57,10.90
2009,09,23,02,58,10.90
2009,09,23,02,59,10.90
2009,09,23,03,00,10.90
2009,09,23,03,01,10.90
2009,09,23,03,02,10.90
2009,09,23,03,03,10.90
2009,09,23,03,04,10.90
2009,09,23,03,05,10.90
2009,09,23,03,06,10.90
2009,09,23,03,07,10.90
2009,09,23,03,08,10.90
2009,09,23,03,09,10.90
2009,09,23,03,10,10.90
2009,09,23,03,11,10.90
2009,09,23,03,12,10.90
2009,09,23,03,13,10.90
2009,09,23,03,14,10.90
2009,09,23,03,15,10.90
2009,09,23,03,16,10.90
2009,09,23,03,17,10.90
2009,09,23,03,18,10.90
2009,09,23,03,19,10.90
2009,09,23,03,20,10.90
2009,09,23,03,21,10.90
2009,09,23,03,22,10.80
2009,09,23,03,23,10.80
2009,09,23,03,24,10.80
2009,09,23,03,25,10.80
2009,09,23,03,26,10.80
2009,09,23,03,27,10.80
2009,09,23,03,28,10.80
2009,09,23,03,29,10.80
2009,09,23,03,30,10.80
2009,09,23,03,31,10.80
2009,09,23,03,32,10.80
2009,09,23,03,33,10.80
2009,09,23,03,34,10.80
2009,09,23,03,35,10.80
2009,09,23,03,36,10.80
2009,09,23,03,37,10.80
2009,09,23,03,38,10.80
2009,09,23,03,39,10.80
2009,09,23,03,40,10.80
2009,09,23,03,41,10.80
2009,09,23,03,42,10.80
2009,09,23,03,43,10.80
2009,09,23,03,44,10.80
2009,09,23,03,45,10.80
2009,09,23,03,46,10.80
2009,09,23,03,47,10.80
2009,09,23,03,48,10.80
2009,09,23,03,49,10.80
2009,09,23,03,50,10.80
2009,09,23,03,51,10.80
2009,09,23,03,52,10.80
2009,09,23,03,53,10.80
2009,09,23,03,54,10.80
2009,09,23,03,55,10.80
2009,09,23,03,56,10.80
2009,09,23,03,57,10.80
2009,09,23,03,58,10.80
2009,09,23,03,59,10.80
2009,09,23,04,00,10.80
2009,09,23,04,01,10.80
2009,09,23,04,02,10.80
2009,09,23,04,03,10.80
2009,09,23,04,04,10.80
2009,09,23,04,05,10.80
2009,09,23,04,06,10.80
2009,09,23,04,07,10.80
2009,09,23,04,08,10.80
2009,09,23,04,09,10.80
2009,09,23,04,10,10.80
2009,09,23,04,11,10.80
2009,09,23,04,12,10.80
2009,09,23,04,13,10.80
2009,09,23,04,14,10.80
2009,09,23,04,15,10.80
2009,09,23,04,16,10.70
2009,09,23,04,17,10.70
2009,09,23,04,18,10.70
2009,09,23,04,19,10.70
2009,09,23,04,20,10.70
2009,09,23,04,21,10.70
2009,09,23,04,22,10.70
2009,09,23,04,23,10.70
2009,09,23,04,24,10.70
2009,09,23,04,25,10.70
2009,09,23,04,26,10.70
2009,09,23,04,27,10.70
2009,09,23,04,28,10.70
2009,09,23,04,29,10.70
2009,09,23,04,30,10.70
2009,09,23,04,31,10.70
2009,09,23,04,32,10.70
2009,09,23,04,33,10.70
2009,09,23,04,34,10.70
2009,09,23,04,35,10.70
2009,09,23,04,36,10.70
2009,09,23,04,37,10.70
2009,09,23,04,38,10.70
2009,09,23,04,39,10.70
2009,09,23,04,40,10.70
2009,09,23,04,41,10.70
2009,09,23,04,42,10.70
2009,09,23,04,43,10.70
2009,09,23,04,44,10.70
2009,09,23,04,45,10.70
2009,09,23,04,46,10.70
2009,09,23,04,47,10.70
2009,09,23,04,48,10.70
2009,09,23,04,49,10.70
2009,09,23,04,50,10.70
2009,09,23,04,51,10.70
2009,09,23,04,52,10.60
2009,09,23,04,53,10.60
2009,09,23,04,54,10.60
2009,09,23,04,55,10.60
2009,09,23,04,56,10.60
2009,09,23,04,57,10.60
2009,09,23,04,58,10.60
2009,09,23,04,59,10.60
2009,09,23,05,00,10.60
2009,09,23,05,01,10.60
2009,09,23,05,02,10.60
2009,09,23,05,03,10.60
2009,09,23,05,04,10.60
2009,09,23,05,05,10.60
2009,09,23,05,06,10.60
2009,09,23,05,07,10.60
2009,09,23,05,08,10.60
2009,09,23,05,09,10.60
2009,09,23,05,10,10.60
2009,09,23,05,11,10.60
2009,09,23,05,12,10.60
2009,09,23,05,13,10.60
2009,09,23,05,14,10.60
2009,09,23,05,15,10.60
2009,09,23,05,16,10.60
2009,09,23,05,17,10.50
2009,09,23,05,18,10.50
2009,09,23,05,19,10.50
2009,09,23,05,20,10.50
2009,09,23,05,21,10.50
2009,09,23,05,22,10.50
2009,09,23,05,23,10.50
2009,09,23,05,24,10.50
2009,09,23,05,25,10.50
2009,09,23,05,26,10.50
2009,09,23,05,27,10.50
2009,09,23,05,28,10.50
2009,09,23,05,29,10.50
2009,09,23,05,30,10.50
2009,09,23,05,31,10.50
2009,09,23,05,32,10.50
2009,09,23,05,33,10.50
2009,09,23,05,34,10.60
2009,09,23,05,35,10.60
2009,09,23,05,36,10.60
2009,09,23,05,37,10.60
2009,09,23,05,38,10.60
2009,09,23,05,39,10.60
2009,09,23,05,40,10.60
2009,09,23,05,41,10.60
2009,09,23,05,42,10.60
2009,09,23,05,43,10.60
2009,09,23,05,44,10.60
2009,09,23,05,45,10.60
2009,09,23,05,46,10.60
2009,09,23,05,47,10.50
2009,09,23,05,48,10.50
2009,09,23,05,49,10.50
2009,09,23,05,50,10.50
2009,09,23,05,51,10.50
2009,09,23,05,52,10.50
2009,09,23,05,53,10.50
2009,09,23,05,54,10.50
2009,09,23,05,55,10.50
2009,09,23,05,56,10.50
2009,09,23,05,57,10.50
2009,09,23,05,58,10.50
2009,09,23,05,59,10.50
2009,09,23,06,00,10.50
2009,09,23,06,01,10.50
2009,09,23,06,02,10.50
2009,09,23,06,03,10.50
2009,09,23,06,04,10.50
2009,09,23,06,05,10.40
2009,09,23,06,06,10.40
2009,09,23,06,07,10.40
2009,09,23,06,08,10.40
2009,09,23,06,09,10.40
2009,09,23,06,10,10.40
2009,09,23,06,11,10.40
2009,09,23,06,12,10.40
2009,09,23,06,13,10.40
2009,09,23,06,14,10.40
2009,09,23,06,15,10.40
2009,09,23,06,16,10.40
2009,09,23,06,17,10.40
2009,09,23,06,18,10.40
2009,09,23,06,19,10.40
2009,09,23,06,20,10.40
2009,09,23,06,21,10.40
2009,09,23,06,22,10.40
2009,09,23,06,23,10.40
2009,09,23,06,24,10.40
2009,09,23,06,25,10.40
2009,09,23,06,26,10.30
2009,09,23,06,27,10.30
2009,09,23,06,28,10.30
2009,09,23,06,29,10.30
2009,09,23,06,30,10.30
2009,09,23,06,31,10.30
2009,09,23,06,32,10.30
2009,09,23,06,33,10.30
2009,09,23,06,34,10.30
2009,09,23,06,35,10.30
2009,09,23,06,36,10.30
2009,09,23,06,37,10.30
2009,09,23,06,38,10.30
2009,09,23,06,39,10.30
2009,09,23,06,40,10.30
2009,09,23,06,41,10.30
2009,09,23,06,42,10.30
2009,09,23,06,43,10.30
2009,09,23,06,44,10.30
2009,09,23,06,45,10.30
2009,09,23,06,46,10.30
2009,09,23,06,47,10.30
2009,09,23,06,48,10.30
2009,09,23,06,49,10.30
2009,09,23,06,50,10.30
2009,09,23,06,51,10.30
2009,09,23,06,52,10.30
2009,09,23,06,53,10.30
2009,09,23,06,54,10.30
2009,09,23,06,55,10.30
2009,09,23,06,56,10.30
2009,09,23,06,57,10.30
2009,09,23,06,58,10.30
2009,09,23,06,59,10.30
2009,09,23,07,00,10.30
2009,09,23,07,01,10.30
2009,09,23,07,02,10.20
2009,09,23,07,03,10.20
2009,09,23,07,04,10.20
2009,09,23,07,05,10.20
2009,09,23,07,06,10.20
2009,09,23,07,07,10.20
2009,09,23,07,08,10.20
2009,09,23,07,09,10.20
2009,09,23,07,10,10.20
2009,09,23,07,11,10.20
2009,09,23,07,12,10.20
2009,09,23,07,13,10.20
2009,09,23,07,14,10.20
2009,09,23,07,15,10.20
2009,09,23,07,16,10.20
2009,09,23,07,17,10.20
2009,09,23,07,18,10.20
2009,09,23,07,19,10.20
2009,09,23,07,20,10.20
2009,09,23,07,21,10.20
2009,09,23,07,22,10.20
2009,09,23,07,23,10.20
2009,09,23,07,24,10.20
2009,09,23,07,25,10.20
2009,09,23,07,26,10.20
2009,09,23,07,27,10.20
2009,09,23,07,28,10.20
2009,09,23,07,29,10.20
2009,09,23,07,30,10.30
2009,09,23,07,31,10.30
2009,09,23,07,32,10.30
2009,09,23,07,33,10.30
2009,09,23,07,34,10.30
2009,09,23,07,35,10.30
2009,09,23,07,36,10.30
2009,09,23,07,37,10.30
2009,09,23,07,38,10.30
2009,09,23,07,39,10.30
2009,09,23,07,40,10.30
2009,09,23,07,41,10.30
2009,09,23,07,42,10.30
2009,09,23,07,43,10.30
2009,09,23,07,44,10.30
2009,09,23,07,45,10.30
2009,09,23,07,46,10.30
2009,09,23,07,47,10.30
2009,09,23,07,48,10.30
2009,09,23,07,49,10.30
2009,09,23,07,50,10.30
2009,09,23,07,51,10.30
2009,09,23,07,52,10.30
2009,09,23,07,53,10.30
2009,09,23,07,54,10.30
2009,09,23,07,55,10.30
2009,09,23,07,56,10.30
2009,09,23,07,57,10.40
2009,09,23,07,58,10.40
2009,09,23,07,59,10.40
2009,09,23,08,00,10.40
2009,09,23,08,01,10.40
2009,09,23,08,02,10.40
2009,09,23,08,03,10.40
2009,09,23,08,04,10.40
2009,09,23,08,05,10.40
2009,09,23,08,06,10.40
2009,09,23,08,07,10.40
2009,09,23,08,08,10.40
2009,09,23,08,09,10.40
2009,09,23,08,10,10.50
2009,09,23,08,11,10.50
2009,09,23,08,12,10.50
2009,09,23,08,13,10.60
2009,09,23,08,14,10.60
2009,09,23,08,15,10.60
2009,09,23,08,16,10.60
2009,09,23,08,17,10.60
2009,09,23,08,18,10.60
2009,09,23,08,19,10.60
2009,09,23,08,20,10.70
2009,09,23,08,21,10.70
2009,09,23,08,22,10.70
2009,09,23,08,23,10.80
2009,09,23,08,24,10.80
2009,09,23,08,25,10.90
2009,09,23,08,26,11.00
2009,09,23,08,27,11.10
2009,09,23,08,28,11.20
2009,09,23,08,29,11.30
2009,09,23,08,30,11.40
2009,09,23,08,31,11.50
2009,09,23,08,32,11.60
2009,09,23,08,33,11.70
2009,09,23,08,34,11.80
2009,09,23,08,35,11.90
2009,09,23,08,36,12.00
2009,09,23,08,37,12.00
2009,09,23,08,38,12.10
2009,09,23,08,39,12.20
2009,09,23,08,40,12.20
2009,09,23,08,41,12.30
2009,09,23,08,42,12.40
2009,09,23,08,43,12.50
2009,09,23,08,44,12.60
2009,09,23,08,45,12.70
2009,09,23,08,46,12.80
2009,09,23,08,47,12.90
2009,09,23,08,48,13.00
2009,09,23,08,49,13.20
2009,09,23,08,50,13.30
2009,09,23,08,51,13.50
2009,09,23,08,52,13.70
2009,09,23,08,53,13.90
2009,09,23,08,54,14.00
2009,09,23,08,55,14.20
2009,09,23,08,56,14.30
2009,09,23,08,57,14.40
2009,09,23,08,58,14.60
2009,09,23,08,59,14.70
2009,09,23,09,00,14.90
2009,09,23,09,01,15.00
2009,09,23,09,02,15.00
2009,09,23,09,03,15.20
2009,09,23,09,04,15.30
2009,09,23,09,05,15.40
2009,09,23,09,06,15.50
2009,09,23,09,07,15.60
2009,09,23,09,08,15.70
2009,09,23,09,09,15.80
2009,09,23,09,10,15.90
2009,09,23,09,11,16.00
2009,09,23,09,12,16.00
2009,09,23,09,13,16.10
2009,09,23,09,14,16.20
2009,09,23,09,15,16.20
2009,09,23,09,16,16.30
2009,09,23,09,17,16.40
2009,09,23,09,18,16.40
2009,09,23,09,19,16.40
2009,09,23,09,20,16.40
2009,09,23,09,21,16.30
2009,09,23,09,22,16.30
2009,09,23,09,23,16.20
2009,09,23,09,24,16.20
2009,09,23,09,25,16.20
2009,09,23,09,26,16.20
2009,09,23,09,27,16.30
2009,09,23,09,28,16.30
2009,09,23,09,29,16.40
2009,09,23,09,30,16.50
2009,09,23,09,31,16.60
2009,09,23,09,32,16.70
2009,09,23,09,33,16.80
2009,09,23,09,34,17.00
2009,09,23,09,35,17.10
2009,09,23,09,36,17.20
2009,09,23,09,37,17.20
2009,09,23,09,38,17.30
2009,09,23,09,39,17.30
2009,09,23,09,40,17.40
2009,09,23,09,41,17.40
2009,09,23,09,42,17.40
2009,09,23,09,43,17.40
2009,09,23,09,44,17.40
2009,09,23,09,45,17.40
2009,09,23,09,46,17.50
2009,09,23,09,47,17.50
2009,09,23,09,48,17.60
2009,09,23,09,49,17.60
2009,09,23,09,50,17.70
2009,09,23,09,51,17.70
2009,09,23,09,52,17.70
2009,09,23,09,53,17.70
2009,09,23,09,54,17.80
2009,09,23,09,55,17.90
2009,09,23,09,56,17.90
2009,09,23,09,57,18.00
2009,09,23,09,58,18.10
2009,09,23,09,59,18.20
2009,09,23,10,00,18.30
2009,09,23,10,01,18.40
2009,09,23,10,02,18.50
2009,09,23,10,03,18.60
2009,09,23,10,04,18.80
2009,09,23,10,05,18.80
2009,09,23,10,06,18.90
2009,09,23,10,07,19.00
2009,09,23,10,08,19.10
2009,09,23,10,09,19.20
2009,09,23,10,10,19.30
2009,09,23,10,11,19.30
2009,09,23,10,12,19.30
2009,09,23,10,13,19.30
2009,09,23,10,14,19.30
2009,09,23,10,15,19.30
2009,09,23,10,16,19.30
2009,09,23,10,17,19.30
2009,09,23,10,18,19.30
2009,09,23,10,19,19.30
2009,09,23,10,20,19.30
2009,09,23,10,21,19.30
2009,09,23,10,22,19.40
2009,09,23,10,23,19.50
2009,09,23,10,24,19.50
2009,09,23,10,25,19.50
2009,09,23,10,26,19.60
2009,09,23,10,27,19.50
2009,09,23,10,28,19.50
2009,09,23,10,29,19.40
2009,09,23,10,30,19.40
2009,09,23,10,31,19.30
2009,09,23,10,32,19.30
2009,09,23,10,33,19.40
2009,09,23,10,34,19.40
2009,09,23,10,35,19.40
2009,09,23,10,36,19.50
2009,09,23,10,37,19.50
2009,09,23,10,38,19.50
2009,09,23,10,39,19.50
2009,09,23,10,40,19.50
2009,09,23,10,41,19.60
2009,09,23,10,42,19.50
2009,09,23,10,43,19.60
2009,09,23,10,44,19.70
2009,09,23,10,45,19.80
2009,09,23,10,46,19.80
2009,09,23,10,47,19.90
2009,09,23,10,48,20.00
2009,09,23,10,49,20.10
2009,09,23,10,50,20.10
2009,09,23,10,51,20.20
2009,09,23,10,52,20.20
2009,09,23,10,53,20.30
2009,09,23,10,54,20.30
2009,09,23,10,55,20.30
2009,09,23,10,56,20.40
2009,09,23,10,57,20.40
2009,09,23,10,58,20.50
2009,09,23,10,59,20.50
2009,09,23,11,00,20.60
2009,09,23,11,01,20.70
2009,09,23,11,02,20.80
2009,09,23,11,03,20.90
2009,09,23,11,04,21.00
2009,09,23,11,05,21.10
2009,09,23,11,06,21.20
2009,09,23,11,07,21.30
2009,09,23,11,08,21.40
2009,09,23,11,09,21.50
2009,09,23,11,10,21.60
2009,09,23,11,11,21.70
2009,09,23,11,12,21.70
2009,09,23,11,13,21.70
2009,09,23,11,14,21.70
2009,09,23,11,15,21.70
2009,09,23,11,16,21.70
2009,09,23,11,17,21.70
2009,09,23,11,18,21.70
2009,09,23,11,19,21.60
2009,09,23,11,20,21.60
2009,09,23,11,21,21.60
2009,09,23,11,22,21.50
2009,09,23,11,23,21.60
2009,09,23,11,24,21.60
2009,09,23,11,25,21.60
2009,09,23,11,26,21.60
2009,09,23,11,27,21.60
2009,09,23,11,28,21.60
2009,09,23,11,29,21.60
2009,09,23,11,30,21.50
2009,09,23,11,31,21.50
2009,09,23,11,32,21.60
2009,09,23,11,33,21.60
2009,09,23,11,34,21.60
2009,09,23,11,35,21.60
2009,09,23,11,36,21.60
2009,09,23,11,37,21.60
2009,09,23,11,38,21.50
2009,09,23,11,39,21.40
2009,09,23,11,40,21.40
2009,09,23,11,41,21.30
2009,09,23,11,42,21.20
2009,09,23,11,43,21.10
2009,09,23,11,44,21.00
2009,09,23,11,45,20.90
2009,09,23,11,46,20.90
2009,09,23,11,47,20.90
2009,09,23,11,48,20.90
2009,09,23,11,49,20.90
2009,09,23,11,50,20.90
2009,09,23,11,51,20.90
2009,09,23,11,52,20.90
2009,09,23,11,53,20.90
2009,09,23,11,54,21.00
2009,09,23,11,55,21.10
2009,09,23,11,56,21.20
2009,09,23,11,57,21.30
2009,09,23,11,58,21.30
2009,09,23,11,59,21.40
2009,09,23,12,00,21.50
2009,09,23,12,01,21.50
2009,09,23,12,02,21.50
2009,09,23,12,03,21.50
2009,09,23,12,04,21.60
2009,09,23,12,05,21.60
2009,09,23,12,06,21.60
2009,09,23,12,07,21.60
2009,09,23,12,08,21.70
2009,09,23,12,09,21.70
2009,09,23,12,10,21.70
2009,09,23,12,11,21.70
2009,09,23,12,12,21.80
2009,09,23,12,13,21.80
2009,09,23,12,14,21.80
2009,09,23,12,15,21.80
2009,09,23,12,16,21.80
2009,09,23,12,17,21.80
2009,09,23,12,18,21.80
2009,09,23,12,19,21.80
2009,09,23,12,20,21.80
2009,09,23,12,21,21.80
2009,09,23,12,22,21.90
2009,09,23,12,23,22.00
2009,09,23,12,24,22.00
2009,09,23,12,25,22.10
2009,09,23,12,26,22.10
2009,09,23,12,27,22.10
2009,09,23,12,28,22.10
2009,09,23,12,29,22.10
2009,09,23,12,30,22.20
2009,09,23,12,31,22.20
2009,09,23,12,32,22.30
2009,09,23,12,33,22.30
2009,09,23,12,34,22.40
2009,09,23,12,35,22.40
2009,09,23,12,36,22.50
2009,09,23,12,37,22.50
2009,09,23,12,38,22.60
2009,09,23,12,39,22.70
2009,09,23,12,40,22.80
2009,09,23,12,41,22.90
2009,09,23,12,42,22.90
2009,09,23,12,43,22.90
2009,09,23,12,44,23.00
2009,09,23,12,45,23.10
2009,09,23,12,46,23.10
2009,09,23,12,47,23.20
2009,09,23,12,48,23.20
2009,09,23,12,49,23.30
2009,09,23,12,50,23.40
2009,09,23,12,51,23.40
2009,09,23,12,52,23.50
2009,09,23,12,53,23.60
2009,09,23,12,54,23.60
2009,09,23,12,55,23.70
2009,09,23,12,56,23.70
2009,09,23,12,57,23.80
2009,09,23,12,58,23.80
2009,09,23,12,59,23.90
2009,09,23,13,00,23.90
2009,09,23,13,01,23.90
2009,09,23,13,02,24.00
2009,09,23,13,03,24.00
2009,09,23,13,04,24.10
2009,09,23,13,05,24.10
2009,09,23,13,06,24.10
2009,09,23,13,07,24.20
2009,09,23,13,08,24.20
2009,09,23,13,09,24.20
2009,09,23,13,10,24.20
2009,09,23,13,11,24.20
2009,09,23,13,12,24.20
2009,09,23,13,13,24.20
2009,09,23,13,14,24.20
2009,09,23,13,15,24.20
2009,09,23,13,16,24.20
2009,09,23,13,17,24.20
2009,09,23,13,18,24.20
2009,09,23,13,19,24.30
2009,09,23,13,20,24.30
2009,09,23,13,21,24.30
2009,09,23,13,22,24.30
2009,09,23,13,23,24.40
2009,09,23,13,24,24.40
2009,09,23,13,25,24.30
2009,09,23,13,26,24.30
2009,09,23,13,27,24.30
2009,09,23,13,28,24.30
2009,09,23,13,29,24.20
2009,09,23,13,30,24.20
2009,09,23,13,31,24.20
2009,09,23,13,32,24.20
2009,09,23,13,33,24.10
2009,09,23,13,34,24.00
2009,09,23,13,35,24.00
2009,09,23,13,36,23.90
2009,09,23,13,37,23.90
2009,09,23,13,38,23.90
2009,09,23,13,39,24.00
2009,09,23,13,40,24.00
2009,09,23,13,41,24.10
2009,09,23,13,42,24.20
2009,09,23,13,43,24.20
2009,09,23,13,44,24.20
2009,09,23,13,45,24.30
2009,09,23,13,46,24.30
2009,09,23,13,47,24.30
2009,09,23,13,48,24.30
2009,09,23,13,49,24.30
2009,09,23,13,50,24.40
2009,09,23,13,51,24.40
2009,09,23,13,52,24.30
2009,09,23,13,53,24.30
2009,09,23,13,54,24.30
2009,09,23,13,55,24.30
2009,09,23,13,56,24.20
2009,09,23,13,57,24.20
2009,09,23,13,58,24.10
2009,09,23,13,59,24.10
2009,09,23,14,00,24.10
2009,09,23,14,01,24.10
2009,09,23,14,02,24.00
2009,09,23,14,03,24.00
2009,09,23,14,04,24.10
2009,09,23,14,05,24.10
2009,09,23,14,06,24.10
2009,09,23,14,07,24.10
2009,09,23,14,08,24.20
2009,09,23,14,09,24.20
2009,09,23,14,10,24.20
2009,09,23,14,11,24.30
2009,09,23,14,12,24.30
2009,09,23,14,13,24.40
2009,09,23,14,14,24.50
2009,09,23,14,15,24.60
2009,09,23,14,16,24.60
2009,09,23,14,17,24.70
2009,09,23,14,18,24.80
2009,09,23,14,19,24.80
2009,09,23,14,20,24.90
2009,09,23,14,21,24.90
2009,09,23,14,22,24.90
2009,09,23,14,23,25.00
2009,09,23,14,24,25.00
2009,09,23,14,25,25.00
2009,09,23,14,26,25.10
2009,09,23,14,27,25.00
2009,09,23,14,28,24.90
2009,09,23,14,29,24.80
2009,09,23,14,30,24.70
2009,09,23,14,31,24.70
2009,09,23,14,32,24.70
2009,09,23,14,33,24.70
2009,09,23,14,34,24.80
2009,09,23,14,35,24.80
2009,09,23,14,36,24.80
2009,09,23,14,37,24.80
2009,09,23,14,38,24.90
2009,09,23,14,39,25.00
2009,09,23,14,40,25.00
2009,09,23,14,41,25.10
2009,09,23,14,42,25.20
2009,09,23,14,43,25.30
2009,09,23,14,44,25.30
2009,09,23,14,45,25.40
2009,09,23,14,46,25.40
2009,09,23,14,47,25.40
2009,09,23,14,48,25.40
2009,09,23,14,49,25.40
2009,09,23,14,50,25.40
2009,09,23,14,51,25.30
2009,09,23,14,52,25.40
2009,09,23,14,53,25.40
2009,09,23,14,54,25.40
2009,09,23,14,55,25.40
2009,09,23,14,56,25.40
2009,09,23,14,57,25.40
2009,09,23,14,58,25.40
2009,09,23,14,59,25.40
2009,09,23,15,00,25.40
2009,09,23,15,01,25.40
2009,09,23,15,02,25.50
2009,09,23,15,03,25.50
2009,09,23,15,04,25.50
2009,09,23,15,05,25.50
2009,09,23,15,06,25.40
2009,09,23,15,07,25.40
2009,09,23,15,08,25.40
2009,09,23,15,09,25.40
2009,09,23,15,10,25.40
2009,09,23,15,11,25.40
2009,09,23,15,12,25.40
2009,09,23,15,13,25.40
2009,09,23,15,14,25.40
2009,09,23,15,15,25.40
2009,09,23,15,16,25.40
2009,09,23,15,17,25.50
2009,09,23,15,18,25.60
2009,09,23,15,19,25.60
2009,09,23,15,20,25.60
2009,09,23,15,21,25.70
2009,09,23,15,22,25.80
2009,09,23,15,23,25.90
2009,09,23,15,24,25.90
2009,09,23,15,25,25.90
2009,09,23,15,26,25.90
2009,09,23,15,27,25.90
2009,09,23,15,28,25.90
2009,09,23,15,29,25.90
2009,09,23,15,30,25.90
2009,09,23,15,31,25.90
2009,09,23,15,32,25.90
2009,09,23,15,33,25.90
2009,09,23,15,34,25.90
2009,09,23,15,35,25.90
2009,09,23,15,36,25.90
2009,09,23,15,37,25.80
2009,09,23,15,38,25.80
2009,09,23,15,39,25.80
2009,09,23,15,40,25.90
2009,09,23,15,41,25.90
2009,09,23,15,42,25.90
2009,09,23,15,43,25.80
2009,09,23,15,44,25.90
2009,09,23,15,45,25.90
2009,09,23,15,46,25.90
2009,09,23,15,47,25.90
2009,09,23,15,48,25.90
2009,09,23,15,49,25.90
2009,09,23,15,50,25.90
2009,09,23,15,51,25.90
2009,09,23,15,52,25.90
2009,09,23,15,53,25.90
2009,09,23,15,54,25.90
2009,09,23,15,55,25.90
2009,09,23,15,56,25.90
2009,09,23,15,57,25.90
2009,09,23,15,58,25.80
2009,09,23,15,59,25.80
2009,09,23,16,00,25.80
2009,09,23,16,01,25.70
2009,09,23,16,02,25.60
2009,09,23,16,03,25.50
2009,09,23,16,04,25.30
2009,09,23,16,05,25.30
2009,09,23,16,06,25.30
2009,09,23,16,07,25.30
2009,09,23,16,08,25.40
2009,09,23,16,09,25.40
2009,09,23,16,10,25.50
2009,09,23,16,11,25.50
2009,09,23,16,12,25.60
2009,09,23,16,13,25.70
2009,09,23,16,14,25.70
2009,09,23,16,15,25.60
2009,09,23,16,16,25.50
2009,09,23,16,17,25.50
2009,09,23,16,18,25.40
2009,09,23,16,19,25.40
2009,09,23,16,20,25.50
2009,09,23,16,21,25.50
2009,09,23,16,22,25.50
2009,09,23,16,23,25.60
2009,09,23,16,24,25.60
2009,09,23,16,25,25.60
2009,09,23,16,26,25.60
2009,09,23,16,27,25.70
2009,09,23,16,28,25.70
2009,09,23,16,29,25.70
2009,09,23,16,30,25.70
2009,09,23,16,31,25.70
2009,09,23,16,32,25.80
2009,09,23,16,33,25.80
2009,09,23,16,34,25.80
2009,09,23,16,35,25.80
2009,09,23,16,36,25.70
2009,09,23,16,37,25.70
2009,09,23,16,38,25.60
2009,09,23,16,39,25.60
2009,09,23,16,40,25.60
2009,09,23,16,41,25.50
2009,09,23,16,42,25.50
2009,09,23,16,43,25.40
2009,09,23,16,44,25.30
2009,09,23,16,45,25.10
2009,09,23,16,46,24.70
2009,09,23,16,47,24.40
2009,09,23,16,48,24.10
2009,09,23,16,49,23.90
2009,09,23,16,50,23.80
2009,09,23,16,51,23.70
2009,09,23,16,52,23.70
2009,09,23,16,53,23.60
2009,09,23,16,54,23.60
2009,09,23,16,55,23.60
2009,09,23,16,56,23.60
2009,09,23,16,57,23.60
2009,09,23,16,58,23.60
2009,09,23,16,59,23.60
2009,09,23,17,00,23.70
2009,09,23,17,01,23.70
2009,09,23,17,02,23.80
2009,09,23,17,03,23.80
2009,09,23,17,04,23.90
2009,09,23,17,05,23.90
2009,09,23,17,06,23.90
2009,09,23,17,07,23.90
2009,09,23,17,08,23.80
2009,09,23,17,09,23.80
2009,09,23,17,10,23.80
2009,09,23,17,11,23.80
2009,09,23,17,12,23.90
2009,09,23,17,13,23.90
2009,09,23,17,14,23.90
2009,09,23,17,15,23.80
2009,09,23,17,16,23.80
2009,09,23,17,17,23.70
2009,09,23,17,18,23.70
2009,09,23,17,19,23.60